This is the latest recevied weather packets stored in our database for station/object KB9YVI-11. If no packets are shown the sender has not sent any weather packets the latest 10 day(s).
| Time | Temp. | Humidity | Pressure | Rain* | Wind** | Luminosity | Snow |
|---|---|---|---|---|---|---|---|
| 1777837535 | 17.78° C | 71% | 0 hPa | 0 mm | - | - | - |
| 1777837235 | 17.22° C | 71% | 0 hPa | 0 mm | - | - | - |
| 1777836935 | 17.22° C | 72% | 0 hPa | 0 mm | - | - | - |
| 1777836634 | 17.22° C | 71% | 0 hPa | 0 mm | - | - | - |
| 1777836336 | 16.67° C | 72% | 0 hPa | 0 mm | - | - | - |
| 1777836036 | 17.22° C | 68% | 0 hPa | 0 mm | - | - | - |
| 1777835735 | 17.22° C | 69% | 0 hPa | 0 mm | - | - | - |
| 1777835436 | 17.22° C | 72% | 0 hPa | 0 mm | - | - | - |
| 1777835135 | 17.22° C | 71% | 0 hPa | 0 mm | - | - | - |
| 1777834536 | 16.67° C | 72% | 0 hPa | 0 mm | - | - | - |
| 1777833937 | 16.67° C | 74% | 0 hPa | 0 mm | - | - | - |
| 1777833636 | 16.67° C | 72% | 0 hPa | 0 mm | - | - | - |
| 1777833336 | 16.67° C | 72% | 0 hPa | 0 mm | - | - | - |
| 1777833034 | 16.67° C | 71% | 0 hPa | 0 mm | - | - | - |
| 1777831836 | 16.11° C | 72% | 0 hPa | 0 mm | - | - | - |
| 1777831536 | 16.11° C | 71% | 0 hPa | 0 mm | - | - | - |
| 1777831236 | 16.11° C | 74% | 0 hPa | 0 mm | - | - | - |
| 1777830336 | 15.56° C | 72% | 0 hPa | 0 mm | - | - | - |
| 1777830036 | 15.56° C | 74% | 0 hPa | 0 mm | - | - | - |
| 1777829736 | 15.56° C | 73% | 0 hPa | 0 mm | - | - | - |
| 1777829434 | 16.11° C | 71% | 0 hPa | 0 mm | - | - | - |
| 1777829136 | 16.11° C | 71% | 0 hPa | 0 mm | - | - | - |
| 1777828836 | 15.56° C | 73% | 0 hPa | 0 mm | - | - | - |
| 1777828236 | 15.56° C | 70% | 0 hPa | 0 mm | - | - | - |
| 1777827936 | 15.56° C | 73% | 0 hPa | 0 mm | - | - | - |
* Rain latest hour (hover to see other rain measurements)
** Current wind speed in m/s (hover to see current wind gust speed)